When you browse on this site, cookies collect data to enhance your experience and personalize the content and advertising you see.
Visit our Privacy Policy to learn more. By continuing to use the site, you agree to this use of cookies and data.
  • In Spain
  • List of Countries
  • For 7 days
  • Water Temperature
  • Satellite Maps
  • Weather Map
  • Weather Widgets
  • user-avatar
    Login

    Hourly Weather Abeshe

    Today, 26 June, Wednesday

    Time Temperature Precipitation Wind Pressure Humidity
    00:00 +36°C° 0 mm 3 mps 710 mmHg 14%
    01:00 +35°C° 0 mm 3 mps 710 mmHg 14%
    02:00 +34°C° 0 mm 5 mps 710 mmHg 24%
    03:00 +33°C° 0 mm 7 mps 711 mmHg 34%
    04:00 +32°C° 0 mm 9 mps 711 mmHg 44%
    05:00 +31°C° 0 mm 8 mps 712 mmHg 50%
    06:00 +31°C° 0 mm 8 mps 712 mmHg 56%
    07:00 +29°C° 0 mm 7 mps 713 mmHg 62%
    08:00 +30°C° 0 mm 7 mps 713 mmHg 56%
    09:00 +33°C° 0 mm 6 mps 713 mmHg 50%
    10:00 +34°C° 0 mm 6 mps 713 mmHg 44%
    11:00 +35°C° 0 mm 5 mps 713 mmHg 40%
    12:00 +36°C° 0 mm 5 mps 713 mmHg 36%
    13:00 +39°C° 0 mm 5 mps 712 mmHg 32%
    14:00 +38°C° 0 mm 4 mps 712 mmHg 31%
    15:00 +38°C° 0 mm 4 mps 712 mmHg 29%
    16:00 +38°C° 0 mm 4 mps 711 mmHg 28%
    17:00 +38°C° 0 mm 3 mps 711 mmHg 30%
    18:00 +37°C° 0 mm 3 mps 712 mmHg 32%
    19:00 +37°C° 0 mm 3 mps 712 mmHg 33%
    20:00 +34°C° 0.3 mm 5 mps 712 mmHg 44%
    21:00 +32°C° 0.3 mm 7 mps 713 mmHg 55%
    22:00 +28°C° 0.3 mm 9 mps 713 mmHg 66%
    23:00 +29°C° 0.2 mm 7 mps 713 mmHg 60%

    Tomorrow, 27 June, Thursday

    Time Temperature Precipitation Wind Pressure Humidity
    00:00 +29°C° 0.2 mm 5 mps 712 mmHg 54%
    01:00 +29°C° 0.2 mm 3 mps 712 mmHg 48%
    02:00 +30°C° 0 mm 3 mps 712 mmHg 45%
    03:00 +31°C° 0 mm 2 mps 712 mmHg 42%
    04:00 +32°C° 0 mm 1 mps 712 mmHg 40%
    05:00 +31°C° 0 mm 3 mps 712 mmHg 43%
    06:00 +32°C° 0 mm 4 mps 713 mmHg 46%
    07:00 +32°C° 0 mm 5 mps 713 mmHg 49%
    08:00 +33°C° 0 mm 5 mps 713 mmHg 46%
    09:00 +34°C° 0 mm 5 mps 713 mmHg 42%
    10:00 +36°C° 0 mm 5 mps 713 mmHg 38%
    11:00 +37°C° 0 mm 4 mps 713 mmHg 35%
    12:00 +38°C° 0 mm 2 mps 713 mmHg 31%
    13:00 +39°C° 0 mm 1 mps 712 mmHg 28%
    14:00 +39°C° 0 mm 2 mps 712 mmHg 27%
    15:00 +39°C° 0 mm 3 mps 711 mmHg 27%
    16:00 +40°C° 0 mm 3 mps 710 mmHg 26%
    17:00 +37°C° 1.9 mm 5 mps 710 mmHg 34%
    18:00 +33°C° 1.9 mm 7 mps 711 mmHg 41%
    19:00 +29°C° 1.9 mm 9 mps 711 mmHg 49%
    20:00 +30°C° 0.1 mm 7 mps 711 mmHg 46%
    21:00 +32°C° 0.1 mm 6 mps 712 mmHg 44%
    22:00 +33°C° 0.1 mm 4 mps 713 mmHg 42%
    23:00 +32°C° 0 mm 5 mps 712 mmHg 49%

    Day after tomorrow, 28 June, Friday

    Time Temperature Precipitation Wind Pressure Humidity
    00:00 +29°C° 0 mm 5 mps 712 mmHg 57%
    01:00 +27°C° 0 mm 6 mps 711 mmHg 64%
    02:00 +28°C° 0 mm 5 mps 711 mmHg 63%
    03:00 +28°C° 0 mm 4 mps 711 mmHg 61%
    04:00 +28°C° 0 mm 3 mps 711 mmHg 59%
    05:00 +28°C° 0 mm 3 mps 712 mmHg 60%
    06:00 +29°C° 0 mm 3 mps 712 mmHg 60%
    07:00 +29°C° 0 mm 3 mps 713 mmHg 61%
    08:00 +30°C° 0 mm 4 mps 713 mmHg 56%
    09:00 +33°C° 0 mm 4 mps 713 mmHg 50%
    10:00 +34°C° 0 mm 4 mps 714 mmHg 45%
    11:00 +35°C° 0 mm 4 mps 713 mmHg 41%
    12:00 +37°C° 0 mm 4 mps 713 mmHg 37%
    13:00 +38°C° 0 mm 4 mps 713 mmHg 33%
    14:00 +38°C° 0 mm 4 mps 712 mmHg 31%
    15:00 +38°C° 0 mm 4 mps 711 mmHg 29%
    16:00 +40°C° 0 mm 4 mps 711 mmHg 28%
    17:00 +38°C° 0 mm 4 mps 711 mmHg 31%
    18:00 +37°C° 0 mm 4 mps 711 mmHg 34%
    19:00 +36°C° 0 mm 4 mps 711 mmHg 38%
    20:00 +35°C° 0 mm 5 mps 712 mmHg 42%
    21:00 +34°C° 0 mm 6 mps 712 mmHg 46%
    22:00 +33°C° 0 mm 6 mps 712 mmHg 50%
    23:00 +32°C° 0 mm 6 mps 712 mmHg 48%

    29 June, Saturday

    Time Temperature Precipitation Wind Pressure Humidity
    00:00 +32°C° 0 mm 5 mps 712 mmHg 46%
    01:00 +32°C° 0 mm 4 mps 711 mmHg 45%
    02:00 +32°C° 0 mm 4 mps 711 mmHg 43%
    03:00 +31°C° 0 mm 3 mps 711 mmHg 42%
    04:00 +31°C° 0 mm 3 mps 711 mmHg 40%
    05:00 +31°C° 0 mm 3 mps 712 mmHg 43%
    06:00 +32°C° 0 mm 4 mps 712 mmHg 46%
    07:00 +32°C° 0 mm 4 mps 713 mmHg 49%
    08:00 +34°C° 0 mm 4 mps 713 mmHg 45%
    09:00 +35°C° 0 mm 4 mps 713 mmHg 41%
    10:00 +37°C° 0 mm 4 mps 714 mmHg 37%
    11:00 +38°C° 0 mm 4 mps 713 mmHg 33%
    12:00 +40°C° 0 mm 5 mps 713 mmHg 30%
    13:00 +41°C° 0 mm 5 mps 712 mmHg 26%
    14:00 +41°C° 0 mm 5 mps 712 mmHg 25%
    15:00 +42°C° 0 mm 5 mps 711 mmHg 23%
    16:00 +42°C° 0 mm 4 mps 710 mmHg 22%
    17:00 +40°C° 0 mm 3 mps 710 mmHg 23%
    18:00 +39°C° 0 mm 3 mps 711 mmHg 25%
    19:00 +39°C° 0 mm 2 mps 711 mmHg 26%
    20:00 +38°C° 0 mm 3 mps 711 mmHg 29%
    21:00 +37°C° 0 mm 3 mps 711 mmHg 32%
    22:00 +36°C° 0 mm 4 mps 711 mmHg 35%
    23:00 +35°C° 0 mm 4 mps 711 mmHg 39%

    30 June, Sunday

    Time Temperature Precipitation Wind Pressure Humidity
    00:00 +34°C° 0 mm 3 mps 710 mmHg 43%
    01:00 +33°C° 0 mm 3 mps 710 mmHg 46%
    02:00 +33°C° 0 mm 3 mps 710 mmHg 48%
    03:00 +33°C° 0 mm 3 mps 710 mmHg 49%
    04:00 +31°C° 0 mm 3 mps 710 mmHg 51%
    05:00 +31°C° 0 mm 3 mps 711 mmHg 51%
    06:00 +33°C° 0 mm 4 mps 711 mmHg 51%
    07:00 +33°C° 0 mm 4 mps 712 mmHg 52%
    08:00 +34°C° 0 mm 4 mps 712 mmHg 47%
    09:00 +36°C° 0 mm 4 mps 713 mmHg 42%
    10:00 +37°C° 0 mm 4 mps 713 mmHg 37%
    11:00 +40°C° 0 mm 4 mps 713 mmHg 32%
    12:00 +41°C° 0 mm 4 mps 712 mmHg 27%
    13:00 +42°C° 0 mm 4 mps 712 mmHg 22%
    14:00 +43°C° 0 mm 4 mps 711 mmHg 21%
    15:00 +43°C° 0 mm 3 mps 710 mmHg 19%
    16:00 +42°C° 0 mm 2 mps 710 mmHg 18%
    17:00 +41°C° 0 mm 2 mps 710 mmHg 19%
    18:00 +41°C° 0 mm 2 mps 710 mmHg 20%
    19:00 +40°C° 0 mm 1 mps 709 mmHg 22%
    20:00 +39°C° 0 mm 2 mps 710 mmHg 22%
    21:00 +38°C° 0 mm 2 mps 710 mmHg 23%
    22:00 +38°C° 0 mm 2 mps 710 mmHg 23%
    23:00 +37°C° 0 mm 2 mps 710 mmHg 25%

    1 July, Monday

    Time Temperature Precipitation Wind Pressure Humidity
    00:00 +36°C° 0 mm 2 mps 709 mmHg 27%
    01:00 +36°C° 0 mm 2 mps 709 mmHg 30%
    02:00 +35°C° 0 mm 3 mps 709 mmHg 33%
    03:00 +34°C° 0 mm 4 mps 709 mmHg 37%
    04:00 +33°C° 0 mm 5 mps 709 mmHg 41%
    05:00 +33°C° 0 mm 6 mps 710 mmHg 44%
    06:00 +33°C° 0 mm 6 mps 711 mmHg 48%
    07:00 +33°C° 0 mm 7 mps 711 mmHg 51%
    08:00 +34°C° 0 mm 6 mps 712 mmHg 50%
    09:00 +35°C° 0 mm 6 mps 712 mmHg 49%
    10:00 +36°C° 0 mm 6 mps 713 mmHg 48%
    11:00 +38°C° 0 mm 6 mps 712 mmHg 43%
    12:00 +39°C° 0 mm 6 mps 712 mmHg 39%
    13:00 +40°C° 0 mm 6 mps 711 mmHg 35%
    14:00 +40°C° 0 mm 6 mps 711 mmHg 34%
    15:00 +40°C° 0 mm 7 mps 710 mmHg 33%
    16:00 +40°C° 0 mm 7 mps 710 mmHg 32%
    17:00 +37°C° 1.2 mm 9 mps 710 mmHg 40%
    18:00 +32°C° 1.2 mm 10 mps 710 mmHg 49%
    19:00 +28°C° 1.2 mm 12 mps 710 mmHg 57%
    20:00 +29°C° 1.7 mm 9 mps 710 mmHg 55%
    21:00 +30°C° 1.7 mm 7 mps 711 mmHg 53%
    22:00 +32°C° 1.7 mm 4 mps 712 mmHg 51%
    23:00 +30°C° 0.1 mm 5 mps 712 mmHg 54%
    Show more